スコッティ彗星

P/2011 A2 ( Scotti )

English version
Home page
Updated on September 3, 2011

---------------------------------------------------------------------

・ プロフィール

発見日 2011年1月11日
発見光度 20.2等
発見者 J. V. Scotti (Spaewatch, Kitt Peak)

・ 写真集

・ 軌道要素

Epoch 2010 Dec. 30.0 TT = JDT 2455560.5
T 2010 Dec. 22.50380 TT                                 MPC
q   1.5587795            (2000.0)            P               Q
n   0.17979541     Peri.   94.58817     -0.85750739     -0.51051484
a   3.1089733      Node    54.72696     +0.43566715     -0.78641148
e   0.4986192      Incl.    4.47392     +0.27363336     -0.34775219
P   5.48
From 219 observations 2011 Jan. 11-May 12, mean residual 0".6.

・ 光度変化

        m1 = 15.5 + 5 logΔ + 10.0 log r

---------------------------------------------------------------------

軌道要素はM.P.E.C. 2011-L51に掲載されたものです。
光度グラフはComet for Windowsで作成したものです。

---------------------------------------------------------------------

Copyright(C) Seiichi Yoshida (comet@aerith.net). All rights reserved.